CW1923 Weather Reports


Display with metric or nautical units.
time (UTC)temp
F
wind
direction
speed
MPH
gust
MPH
rain 1hr
in
rain 24hr
in
rain mn
in
humidity
%
barometer
mb
20260507134510 61 122 2.0 5.0 0.00 0.01 0.00 58 1015.9
20260507134005 61 119 2.0 5.0 0.00 0.01 0.00 60 1015.9
20260507133000 61 172 4.0 7.0 0.00 0.01 0.00 60 1016.0
20260507131953 61 164 2.0 5.0 0.00 0.01 0.00 61 1015.9
20260507131455 60 166 2.0 5.0 0.00 0.01 0.00 61 1015.8
20260507130450 60 143 2.0 5.0 0.00 0.01 0.00 59 1016.0
20260507125449 60 125 2.0 7.0 0.00 0.01 0.00 61 1016.0
20260507124947 60 121 2.0 4.0 0.00 0.01 0.00 60 1015.9
20260507123952 60 110 2.0 5.0 0.00 0.01 0.00 60 1015.9
20260507122935 60 157 2.0 5.0 0.00 0.01 0.00 61 1015.8
20260507121934 60 123 2.0 5.0 0.00 0.01 0.00 60 1015.8
20260507121433 60 117 2.0 5.0 0.00 0.01 0.00 61 1015.8
20260507120432 60 132 2.0 7.0 0.00 0.01 0.00 60 1015.8
20260507115932 60 132 2.0 7.0 0.00 0.01 0.00 60 1015.8
20260507115432 60 138 4.0 7.0 0.00 0.01 0.00 61 1015.9
20260507114931 60 161 2.0 7.0 0.00 0.01 0.00 60 1015.8
20260507114429 60 165 2.0 7.0 0.00 0.01 0.00 61 1015.8
20260507113930 60 165 2.0 7.0 0.00 0.01 0.00 60 1015.8
20260507113423 60 106 2.0 5.0 0.00 0.01 0.00 60 1015.9
20260507112928 60 106 2.0 5.0 0.00 0.01 0.00 58 1015.8
20260507112411 60 86 2.0 5.0 0.00 0.01 0.00 60 1015.8
20260507111905 60 74 2.0 5.0 0.00 0.01 0.00 62 1015.9
20260507111407 60 119 2.0 9.0 0.00 0.01 0.00 62 1015.9
20260507110905 60 145 4.0 9.0 0.00 0.01 0.00 63 1015.9
20260507110404 60 141 2.0 9.0 0.00 0.01 0.00 62 1015.9
20260507105905 60 25 2.0 9.0 0.00 0.01 0.00 62 1016.0
20260507105404 60 126 2.0 11.0 0.00 0.01 0.00 62 1016.0
20260507103907 61 114 2.0 7.0 0.00 0.01 0.00 60 1015.9
20260507103404 62 358 4.0 11.0 0.00 0.01 0.00 58 1015.9
20260507102905 62 162 4.0 11.0 0.00 0.01 0.00 61 1015.9
20260507102404 62 341 2.0 7.0 0.00 0.01 0.00 61 1016.0
20260507101903 62 113 2.0 7.0 0.00 0.01 0.00 61 1016.0
20260507101403 63 125 2.0 7.0 0.00 0.01 0.00 64 1016.0
20260507100906 62 109 2.0 7.0 0.00 0.01 0.00 61 1016.1
20260507100402 61 111 2.0 7.0 0.00 0.01 0.00 64 1015.9
20260507095906 61 235 2.0 5.0 0.00 0.01 0.00 65 1016.0
20260507095405 61 148 2.0 9.0 0.00 0.01 0.00 65 1015.9
20260507094905 60 106 2.0 9.0 0.00 0.01 0.00 64 1015.8
20260507094403 60 111 2.0 11.0 0.00 0.01 0.00 67 1015.9
20260507093849 59 108 4.0 11.0 0.00 0.01 0.00 67 1015.9
20260507093350 60 140 2.0 9.0 0.00 0.01 0.00 67 1015.9
20260507092843 60 191 2.0 4.0 0.00 0.01 0.00 67 1015.9
20260507092341 59 191 2.0 7.0 0.00 0.01 0.00 66 1015.9
20260507091841 59 161 2.0 7.0 0.00 0.01 0.00 67 1015.9
20260507090838 59 10 2.0 7.0 0.00 0.01 0.00 68 1015.9
20260507090338 59 20 2.0 7.0 0.00 0.01 0.00 70 1015.8
20260507085835 58 25 4.0 7.0 0.00 0.01 0.00 71 1015.9
20260507085334 58 25 2.0 5.0 0.00 0.01 0.00 71 1015.9
20260507084332 58 25 2.0 5.0 0.00 0.01 0.00 72 1015.9
20260507083829 58 106 2.0 4.0 0.00 0.01 0.00 71 1015.8
20260507082832 57 112 2.0 7.0 0.00 0.01 0.00 72 1015.9
20260507082327 57 114 2.0 11.0 0.00 0.01 0.00 72 1015.8
20260507081829 56 119 2.0 11.0 0.00 0.01 0.00 74 1015.8
20260507080323 55 91 0.0 0.0 0.00 0.01 0.00 79 1015.8
20260507074804 53 85 0.0 0.0 0.00 0.01 0.00 81 1015.7
20260507073306 53 86 0.0 2.0 0.00 0.01 0.00 84 1015.5
20260507072805 52 86 0.0 0.0 0.00 0.01 0.00 84 1015.5
20260507072306 52 86 0.0 2.0 0.00 0.01 0.00 85 1015.5
20260507071751 52 86 0.0 4.0 0.00 0.01 0.00 85 1015.5
20260507071252 51 86 2.0 4.0 0.00 0.01 0.00 85 1015.4
20260507070753 51 87 2.0 4.0 0.00 0.01 0.00 86 1015.4
20260507065746 51 89 2.0 4.0 0.00 0.01 0.00 87 1015.4
20260507065240 51 89 2.0 4.0 0.00 0.01 0.00 87 1015.3
20260507064737 51 89 2.0 4.0 0.00 0.01 0.00 87 1015.4
20260507063235 51 92 0.0 4.0 0.00 0.01 0.00 89 1015.2
20260507062231 50 93 0.0 0.0 0.00 0.01 0.00 89 1015.1
20260507061734 50 93 0.0 0.0 0.00 0.01 0.00 89 1015.1
20260507061230 50 93 0.0 0.0 0.00 0.01 0.00 89 1015.0
20260507060732 50 93 0.0 0.0 0.00 0.01 0.00 89 1014.9
20260507060231 50 93 0.0 0.0 0.00 0.01 0.00 89 1014.9
20260507055734 50 93 0.0 0.0 0.00 0.01 0.00 89 1014.9
20260507055232 50 93 0.0 0.0 0.00 0.01 0.00 89 1014.8
20260507054730 50 93 0.0 0.0 0.00 0.01 0.00 89 1014.7
20260507054235 50 93 0.0 0.0 0.00 0.01 0.00 89 1014.7
20260507053235 50 93 0.0 0.0 0.00 0.01 0.00 90 1014.7
20260507052230 49 93 0.0 0.0 0.00 0.01 0.00 90 1014.7
20260507051732 49 93 0.0 0.0 0.00 0.01 0.00 90 1014.7
20260507051231 49 93 0.0 0.0 0.00 0.01 0.00 89 1014.5
20260507050733 49 93 0.0 0.0 0.00 0.01 0.00 89 1014.5
20260507050230 49 93 0.0 0.0 0.00 0.01 0.00 89 1014.4
20260507045733 49 93 0.0 0.0 0.00 0.01 0.00 89 1014.4
20260507043734 49 93 0.0 0.0 0.00 0.01 0.00 89 1014.3
20260507043234 49 93 0.0 0.0 0.00 0.01 0.00 89 1014.2
20260507042730 49 93 0.0 0.0 0.00 0.01 0.00 89 1014.1
20260507042229 49 93 0.0 0.0 0.00 0.01 0.00 89 1014.1
20260507041731 49 93 0.0 0.0 0.00 0.01 0.00 89 1014.1
20260507040733 49 93 0.0 0.0 0.00 0.01 0.00 88 1014.0
20260507035733 49 93 0.0 0.0 0.00 0.01 0.00 88 1013.9
20260507035233 49 93 0.0 0.0 0.00 0.01 0.00 88 1013.9
20260507034730 49 93 0.0 0.0 0.00 0.01 0.00 88 1013.9
20260507034230 49 93 0.0 0.0 0.00 0.01 0.00 88 1013.9
20260507033233 50 93 0.0 0.0 0.00 0.01 0.00 88 1013.8
20260507032732 50 93 0.0 0.0 0.00 0.01 0.00 88 1013.8
20260507032231 50 93 0.0 0.0 0.00 0.01 0.00 88 1013.8
20260507031732 50 93 0.0 0.0 0.00 0.01 0.00 88 1013.8
20260507030706 50 93 0.0 0.0 0.00 0.02 0.00 88 1013.8
20260507030204 50 93 0.0 0.0 0.00 0.02 0.00 88 1013.7
20260507025707 50 93 0.0 0.0 0.00 0.02 0.00 88 1013.7
20260507025203 50 93 0.0 0.0 0.00 0.02 0.00 87 1013.7
20260507024706 50 93 0.0 0.0 0.00 0.02 0.00 87 1013.6
20260507023642 50 93 0.0 0.0 0.00 0.02 0.00 87 1013.7
20260507023137 50 93 0.0 0.0 0.00 0.02 0.00 87 1013.6
20260507022636 50 93 0.0 0.0 0.00 0.02 0.00 87 1013.7
20260507022136 50 93 0.0 0.0 0.00 0.02 0.00 86 1013.6
20260507021638 50 93 0.0 0.0 0.00 0.02 0.00 86 1013.6
20260507021136 50 93 0.0 0.0 0.00 0.02 0.00 86 1013.7
20260507020634 50 93 0.0 0.0 0.00 0.02 0.00 86 1013.5
20260507020133 50 93 0.0 0.0 0.00 0.02 0.00 86 1013.5
20260507015636 50 93 0.0 0.0 0.00 0.02 0.00 86 1013.4
20260507015146 50 93 0.0 0.0 0.00 0.02 0.00 86 1013.4
20260507014631 50 93 0.0 0.0 0.00 0.02 0.00 86 1013.3
20260507014130 50 93 0.0 0.0 0.00 0.02 0.00 85 1013.4
20260507013635 50 93 0.0 0.0 0.00 0.02 0.00 85 1013.3
20260507013132 50 93 0.0 0.0 0.00 0.02 0.00 85 1013.4
20260507012633 50 93 0.0 0.0 0.00 0.02 0.00 85 1013.4
20260507012132 50 93 0.0 0.0 0.00 0.02 0.00 85 1013.4
20260507010634 50 93 0.0 0.0 0.00 0.02 0.00 85 1013.4
20260507010132 50 93 0.0 0.0 0.00 0.02 0.00 85 1013.3
20260507005124 50 93 0.0 0.0 0.00 0.02 0.00 85 1013.4
20260507004616 50 93 0.0 0.0 0.00 0.02 0.00 85 1013.3
20260507004120 50 93 0.0 0.0 0.00 0.02 0.00 84 1013.4
20260507003105 50 93 0.0 0.0 0.00 0.02 0.00 84 1013.3
20260507002104 51 93 0.0 0.0 0.00 0.02 0.00 84 1013.3
20260507001104 51 93 0.0 0.0 0.00 0.02 0.00 83 1013.2
20260507000607 51 93 0.0 0.0 0.00 0.02 0.00 83 1013.2
20260507000107 51 93 0.0 0.0 0.00 0.02 0.00 83 1013.2
20260506235105 51 93 0.0 0.0 0.00 0.02 0.00 83 1013.2
20260506234600 51 93 0.0 0.0 0.00 0.02 0.00 83 1013.1
20260506234054 51 93 0.0 0.0 0.00 0.02 0.00 83 1013.1
20260506233559 51 93 0.0 0.0 0.00 0.02 0.00 82 1013.1
20260506233047 51 93 0.0 0.0 0.00 0.03 0.00 82 1013.1
20260506232048 51 93 0.0 0.0 0.00 0.03 0.00 82 1013.0
20260506231542 51 93 0.0 0.0 0.00 0.03 0.00 82 1013.0
20260506231034 51 93 0.0 0.0 0.00 0.03 0.00 82 1013.0
20260506230532 51 93 0.0 0.0 0.00 0.03 0.00 82 1012.9
20260506225525 51 93 0.0 0.0 0.00 0.03 0.00 82 1012.8
20260506225016 51 93 0.0 0.0 0.00 0.03 0.00 82 1012.8
20260506224510 51 93 0.0 0.0 0.00 0.03 0.00 82 1012.7
20260506224010 51 93 0.0 0.0 0.00 0.03 0.00 81 1012.6
20260506223504 51 93 0.0 0.0 0.00 0.03 0.00 81 1012.6
20260506222958 51 93 0.0 0.0 0.00 0.03 0.00 81 1012.5
20260506222445 51 93 0.0 0.0 0.00 0.03 0.00 81 1012.5
20260506221942 51 93 0.0 0.0 0.00 0.03 0.00 81 1012.5
20260506221438 51 93 0.0 0.0 0.00 0.04 0.00 81 1012.4
20260506220933 51 93 0.0 0.0 0.00 0.04 0.00 81 1012.4
20260506220431 51 93 0.0 0.0 0.00 0.04 0.00 81 1012.5
20260506215934 51 93 0.0 0.0 0.00 0.04 0.04 81 1012.4
20260506215434 51 93 0.0 0.0 0.00 0.05 0.04 81 1012.4
20260506214431 51 93 0.0 0.0 0.00 0.05 0.04 81 1012.4
20260506213934 51 93 0.0 0.0 0.00 0.05 0.04 81 1012.3
20260506213432 51 93 0.0 0.0 0.00 0.06 0.04 80 1012.4
20260506212932 51 93 0.0 0.0 0.00 0.06 0.04 80 1012.3
20260506212436 51 93 0.0 0.0 0.00 0.06 0.04 80 1012.4
20260506211424 52 93 0.0 0.0 0.00 0.06 0.04 80 1012.3
20260506210920 52 93 0.0 0.0 0.00 0.06 0.04 80 1012.2
20260506210418 51 93 0.0 0.0 0.00 0.06 0.04 80 1012.2
20260506205911 52 93 0.0 0.0 0.00 0.06 0.04 80 1012.2
20260506205410 52 93 0.0 0.0 0.00 0.06 0.04 79 1012.2
20260506204905 52 93 0.0 0.0 0.00 0.06 0.04 79 1012.2
20260506204404 52 93 0.0 0.0 0.00 0.06 0.04 79 1012.1
20260506203905 52 93 0.0 0.0 0.00 0.06 0.04 79 1012.1
20260506202905 52 93 2.0 7.0 0.00 0.07 0.04 80 1012.1
20260506202406 52 93 2.0 7.0 0.00 0.07 0.04 80 1012.0
20260506201404 52 145 0.0 4.0 0.00 0.07 0.04 81 1011.8
20260506195906 52 146 2.0 5.0 0.00 0.07 0.04 81 1011.7
20260506195404 52 146 2.0 5.0 0.00 0.07 0.04 81 1011.7
20260506194907 52 147 0.0 5.0 0.00 0.07 0.04 81 1011.6
20260506194404 52 147 0.0 5.0 0.00 0.07 0.04 81 1011.7
20260506193907 52 147 0.0 5.0 0.00 0.07 0.04 81 1011.8
20260506192838 52 148 2.0 11.0 0.01 0.07 0.04 80 1011.6
20260506192335 52 147 2.0 11.0 0.01 0.07 0.04 80 1011.5
20260506191333 53 25 0.0 4.0 0.01 0.07 0.04 79 1011.5
20260506190330 53 118 2.0 7.0 0.01 0.07 0.04 78 1011.3
20260506185832 53 118 2.0 11.0 0.01 0.07 0.04 78 1011.2
20260506185333 53 84 2.0 11.0 0.01 0.07 0.04 78 1011.3
20260506184824 53 81 2.0 4.0 0.01 0.07 0.04 77 1011.1
20260506184324 53 81 2.0 5.0 0.01 0.07 0.04 77 1011.1
20260506183822 53 81 2.0 5.0 0.01 0.07 0.04 75 1011.1
20260506183323 53 6 2.0 5.0 0.00 0.06 0.03 74 1011.1
20260506182816 54 25 2.0 5.0 0.00 0.06 0.03 74 1011.0
20260506182312 54 25 4.0 7.0 0.00 0.06 0.03 73 1011.0
20260506181812 54 25 4.0 7.0 0.00 0.06 0.03 72 1010.9
20260506181309 54 25 4.0 9.0 0.00 0.06 0.03 72 1010.8
20260506180309 55 323 2.0 14.0 0.00 0.06 0.03 70 1010.6
20260506175804 55 25 2.0 14.0 0.00 0.06 0.03 70 1010.6
20260506174805 55 79 4.0 11.0 0.00 0.06 0.03 69 1010.5
20260506174304 55 105 2.0 7.0 0.00 0.06 0.03 69 1010.4
20260506173804 56 5 2.0 5.0 0.00 0.06 0.03 68 1010.2
20260506173304 56 1 4.0 5.0 0.00 0.06 0.03 67 1010.2
20260506172804 56 11 4.0 9.0 0.00 0.06 0.03 66 1010.2
20260506172306 57 19 4.0 9.0 0.00 0.06 0.03 66 1010.2
20260506171804 57 345 4.0 9.0 0.00 0.06 0.03 65 1010.1
20260506170802 58 84 2.0 7.0 0.00 0.06 0.03 64 1010.0
20260506165806 58 124 2.0 7.0 0.00 0.06 0.03 63 1009.8
20260506165305 58 112 4.0 12.0 0.00 0.06 0.03 64 1009.8
20260506164804 58 47 4.0 12.0 0.00 0.06 0.03 65 1009.7
20260506164305 57 12 4.0 7.0 0.00 0.06 0.03 65 1009.7
20260506163305 58 12 2.0 9.0 0.00 0.06 0.03 65 1009.5
20260506162804 58 12 2.0 7.0 0.00 0.06 0.03 65 1009.4
20260506161805 58 349 2.0 11.0 0.00 0.06 0.03 67 1009.4
20260506161303 58 72 2.0 4.0 0.00 0.06 0.03 68 1009.4
20260506160803 58 72 2.0 5.0 0.00 0.06 0.03 69 1009.4
20260506160304 58 54 2.0 5.0 0.00 0.06 0.03 68 1009.5
20260506155805 58 56 2.0 5.0 0.00 0.06 0.03 68 1009.4
20260506155306 58 56 2.0 5.0 0.00 0.06 0.03 68 1009.3
20260506154806 58 55 2.0 5.0 0.00 0.06 0.03 67 1009.4
20260506154306 58 339 2.0 5.0 0.00 0.06 0.03 67 1009.4
20260506153303 59 16 2.0 7.0 0.00 0.06 0.03 67 1009.3
20260506152803 59 95 2.0 11.0 0.00 0.06 0.03 67 1009.3
20260506152306 59 16 2.0 11.0 0.00 0.06 0.03 66 1009.2
20260506151304 59 105 2.0 7.0 0.00 0.07 0.03 65 1009.2
20260506150305 60 61 0.0 4.0 0.00 0.07 0.03 64 1009.2
20260506145804 60 61 2.0 5.0 0.00 0.07 0.03 65 1009.2
20260506145305 59 61 2.0 5.0 0.00 0.07 0.03 65 1009.2
20260506144803 59 74 2.0 4.0 0.00 0.07 0.03 66 1009.1
20260506144303 59 60 2.0 5.0 0.00 0.07 0.03 65 1009.1
20260506143803 59 61 2.0 5.0 0.00 0.07 0.03 64 1009.2
20260506143302 59 59 2.0 5.0 0.00 0.07 0.03 64 1009.1
20260506142747 59 62 4.0 5.0 0.00 0.07 0.03 63 1009.1
20260506141747 60 77 2.0 7.0 0.00 0.07 0.03 63 1009.1
20260506141246 60 4 2.0 7.0 0.00 0.07 0.03 63 1009.1
20260506140246 60 14 2.0 7.0 0.00 0.07 0.03 63 1009.1
20260506135742 61 35 4.0 9.0 0.00 0.07 0.03 62 1009.1
20260506135241 61 128 4.0 9.0 0.00 0.07 0.03 62 1009.1